GW3254 Weather Reports


time (UTC)temp
C
wind
direction
speed
KPH
gust
KPH
rain 1hr
cm
rain 24hr
cm
rain mn
cm
humidity
%
barometer
mb
20260505214455 7 183 3.2 4.8 0.00 0.00 0.00 53 1008.7
20260505213952 7 184 4.8 4.8 0.00 0.00 0.00 53 1008.8
20260505213450 7 189 1.6 3.2 0.00 0.00 0.00 53 1008.8
20260505212946 8 141 1.6 4.8 0.00 0.00 0.00 53 1008.9
20260505212443 8 163 1.6 4.8 0.00 0.00 0.00 52 1008.5
20260505211939 8 151 3.2 4.8 0.00 0.00 0.00 52 1008.6
20260505211437 8 154 1.6 3.2 0.00 0.00 0.00 52 1008.4
20260505210933 8 112 1.6 3.2 0.00 0.00 0.00 52 1008.6
20260505210430 8 162 0.0 3.2 0.00 0.00 0.00 52 1008.5
20260505205927 8 135 1.6 3.2 0.00 0.00 0.00 52 1008.4
20260505205426 8 175 1.6 4.8 0.00 0.00 0.00 52 1008.6
20260505204922 8 152 1.6 4.8 0.00 0.00 0.00 52 1008.4
20260505204420 8 180 1.6 3.2 0.00 0.00 0.00 51 1008.5
20260505203917 8 141 3.2 4.8 0.00 0.00 0.00 51 1008.4
20260505203414 9 163 3.2 4.8 0.00 0.00 0.00 51 1008.3
20260505202910 9 184 3.2 4.8 0.00 0.00 0.00 51 1008.4
20260505202406 9 181 3.2 3.2 0.00 0.00 0.00 51 1008.3
20260505201902 9 175 3.2 3.2 0.00 0.00 0.00 51 1008.4
20260505201359 9 178 1.6 4.8 0.00 0.00 0.00 51 1008.2
20260505200858 10 171 3.2 4.8 0.00 0.00 0.00 51 1008.4
20260505200354 10 199 0.0 3.2 0.00 0.00 0.00 51 1008.6
20260505195850 10 158 0.0 3.2 0.00 0.00 0.00 51 1008.4
20260505195347 10 124 0.0 3.2 0.00 0.00 0.00 51 1008.5
20260505194844 10 89 1.6 3.2 0.00 0.00 0.00 51 1008.3
20260505194342 10 173 3.2 4.8 0.00 0.00 0.00 51 1008.2
20260505193837 10 170 3.2 4.8 0.00 0.00 0.00 51 1008.5
20260505193335 10 180 3.2 4.8 0.00 0.00 0.00 50 1008.4
20260505192833 10 180 0.0 0.0 0.00 0.00 0.00 51 1008.2
20260505192331 10 170 1.6 3.2 0.00 0.00 0.00 50 1008.2
20260505191828 10 147 1.6 3.2 0.00 0.00 0.00 50 1008.0
20260505191327 10 131 3.2 4.8 0.00 0.00 0.00 50 1008.0
20260505190823 10 352 0.0 3.2 0.00 0.00 0.00 50 1008.3
20260505190318 11 171 0.0 3.2 0.00 0.00 0.00 49 1008.2
20260505185814 11 178 3.2 4.8 0.00 0.00 0.00 49 1007.8
20260505185311 11 180 4.8 8.0 0.00 0.00 0.00 49 1007.8
20260505184807 11 180 3.2 6.4 0.00 0.00 0.00 48 1007.8
20260505184304 11 225 4.8 9.7 0.00 0.00 0.00 48 1007.8
20260505183801 11 186 4.8 6.4 0.00 0.00 0.00 48 1007.8
20260505183258 11 181 4.8 8.0 0.00 0.00 0.00 48 1007.9
20260505182755 11 189 6.4 11.3 0.00 0.00 0.00 48 1007.5
20260505182251 11 182 4.8 8.0 0.00 0.00 0.00 48 1007.6
20260505181748 12 147 4.8 14.5 0.00 0.00 0.00 47 1007.8
20260505181246 12 172 4.8 14.5 0.00 0.00 0.00 47 1007.9
20260505180742 12 217 4.8 11.3 0.00 0.00 0.00 47 1007.7
20260505180238 12 178 6.4 9.7 0.00 0.00 0.00 47 1007.7
20260505175735 12 189 4.8 9.7 0.00 0.00 0.00 47 1007.6
20260505175231 12 198 4.8 6.4 0.00 0.00 0.00 47 1007.7
20260505174728 12 199 1.6 11.3 0.00 0.00 0.00 47 1007.5
20260505174225 12 216 3.2 8.0 0.00 0.00 0.00 47 1007.6
20260505173721 12 212 9.7 19.3 0.00 0.00 0.00 46 1007.5
20260505173218 12 186 4.8 9.7 0.00 0.00 0.00 46 1007.6
20260505172715 12 207 8.0 14.5 0.00 0.00 0.00 46 1007.8
20260505172212 12 176 3.2 17.7 0.00 0.00 0.00 46 1007.5
20260505171712 12 209 9.7 16.1 0.00 0.00 0.00 46 1007.5
20260505171209 12 195 6.4 17.7 0.00 0.00 0.00 46 1007.5
20260505170706 13 236 6.4 14.5 0.00 0.00 0.00 45 1007.5
20260505170203 13 237 1.6 16.1 0.00 0.00 0.00 45 1007.6
20260505165703 13 203 8.0 17.7 0.00 0.00 0.00 45 1007.4
20260505165159 13 148 3.2 8.0 0.00 0.00 0.00 44 1007.5
20260505164655 13 143 6.4 17.7 0.00 0.00 0.00 44 1007.4
20260505164153 13 221 9.7 19.3 0.00 0.00 0.00 44 1007.6
20260505163651 13 218 16.1 24.1 0.00 0.00 0.00 44 1007.5
20260505163149 13 282 1.6 11.3 0.00 0.00 0.00 44 1007.5
20260505162646 13 228 4.8 17.7 0.00 0.00 0.00 44 1007.6
20260505162143 13 206 8.0 14.5 0.00 0.00 0.00 44 1007.5
20260505161640 13 203 3.2 19.3 0.00 0.00 0.00 43 1007.3
20260505161137 13 236 11.3 24.1 0.00 0.00 0.00 43 1007.4
20260505160635 13 251 4.8 16.1 0.00 0.00 0.00 43 1007.5
20260505160132 13 237 9.7 22.5 0.00 0.00 0.00 42 1007.5
20260505153112 13 187 14.5 22.5 0.00 0.00 0.00 43 1007.3
20260505152608 13 230 6.4 16.1 0.00 0.00 0.00 44 1007.1
20260505152104 13 207 11.3 19.3 0.00 0.00 0.00 44 1007.1
20260505151559 13 316 0.0 12.9 0.00 0.00 0.00 44 1007.3
20260505151057 13 172 4.8 11.3 0.00 0.00 0.00 43 1007.1
20260505150553 13 202 6.4 17.7 0.00 0.00 0.00 43 1007.0
20260505140519 13 181 20.9 20.9 0.00 0.00 0.00 45 1006.8
20260505124932 12 244 8.0 17.7 0.00 0.00 0.00 45 1006.8
20260505124429 12 207 8.0 19.3 0.00 0.00 0.00 46 1007.1
20260505123925 12 263 6.4 14.5 0.00 0.00 0.00 46 1006.8
20260505123422 12 283 19.3 19.3 0.00 0.00 0.00 46 1007.1
20260505122918 12 222 11.3 16.1 0.00 0.00 0.00 46 1007.0
20260505122415 12 349 11.3 12.9 0.00 0.00 0.00 46 1006.9
20260505121912 11 287 4.8 19.3 0.00 0.00 0.00 46 1006.9
20260505121409 11 277 9.7 14.5 0.00 0.00 0.00 46 1006.9
20260505120905 11 337 8.0 17.7 0.00 0.00 0.00 46 1006.8
20260505120401 11 328 11.3 20.9 0.00 0.00 0.00 46 1006.9
20260505115900 11 279 4.8 14.5 0.00 0.00 0.00 46 1006.8
20260505115357 11 197 9.7 17.7 0.00 0.00 0.00 46 1006.9
20260505114855 11 170 6.4 27.4 0.00 0.00 0.00 46 1006.9
20260505114351 11 306 9.7 20.9 0.00 0.00 0.00 45 1006.9
20260505113847 11 212 8.0 22.5 0.00 0.00 0.00 46 1006.8
20260505113344 11 243 6.4 14.5 0.00 0.00 0.00 47 1006.7
20260505112840 10 208 6.4 11.3 0.00 0.00 0.00 48 1007.0
20260505112338 10 279 12.9 33.8 0.00 0.00 0.00 47 1006.9
20260505111833 10 257 3.2 17.7 0.00 0.00 0.00 48 1007.2
20260505111329 10 306 4.8 11.3 0.00 0.00 0.00 49 1007.0
20260505110825 10 37 0.0 11.3 0.00 0.00 0.00 48 1006.9
20260505110323 10 197 6.4 16.1 0.00 0.00 0.00 49 1006.8
20260505101757 8 253 8.0 9.7 0.00 0.00 0.00 48 1006.9
20260505101252 8 272 3.2 12.9 0.00 0.00 0.00 47 1007.0
20260505100749 8 286 6.4 14.5 0.00 0.00 0.00 47 1006.9
20260505100245 8 146 3.2 11.3 0.00 0.00 0.00 48 1007.0
20260505095741 8 242 4.8 12.9 0.00 0.00 0.00 47 1007.0
20260505095239 8 216 8.0 16.1 0.00 0.00 0.00 46 1007.2
20260505094734 7 28 3.2 4.8 0.00 0.00 0.00 49 1007.0
20260505094231 7 199 4.8 17.7 0.00 0.00 0.00 47 1007.1
20260505093727 7 253 8.0 14.5 0.00 0.00 0.00 48 1007.1
20260505093225 7 240 3.2 19.3 0.00 0.00 0.00 47 1007.1
20260505092722 7 43 8.0 9.7 0.00 0.00 0.00 49 1007.1
20260505092221 7 45 8.0 14.5 0.00 0.00 0.00 49 1006.8
20260505091717 7 12 9.7 19.3 0.00 0.00 0.00 50 1006.9
20260505091215 7 303 6.4 8.0 0.00 0.00 0.00 50 1006.8
20260505090712 7 240 0.0 8.0 0.00 0.00 0.00 50 1007.0
20260505090210 7 245 4.8 11.3 0.00 0.00 0.00 49 1006.9
20260505085708 7 263 6.4 9.7 0.00 0.00 0.00 50 1007.0
20260505085206 7 132 1.6 9.7 0.00 0.00 0.00 50 1006.9
20260505084703 6 12 11.3 16.1 0.00 0.00 0.00 50 1007.0
20260505084202 6 22 12.9 17.7 0.00 0.00 0.00 50 1006.7
20260505083659 6 325 4.8 14.5 0.00 0.00 0.00 51 1006.9
20260505083155 6 210 6.4 11.3 0.00 0.00 0.00 50 1006.7
20260505082651 6 3 0.0 4.8 0.00 0.00 0.00 52 1006.8
20260505082148 6 27 4.8 4.8 0.00 0.00 0.00 52 1006.6
20260505081644 6 123 3.2 14.5 0.00 0.00 0.00 53 1006.6
20260505081142 6 333 3.2 11.3 0.00 0.00 0.00 53 1006.6
20260505080638 6 339 1.6 4.8 0.00 0.00 0.00 53 1006.8
20260505080134 6 98 4.8 11.3 0.00 0.00 0.00 53 1006.6
20260505075630 6 88 4.8 11.3 0.00 0.00 0.00 53 1006.6
20260505075127 6 25 6.4 17.7 0.00 0.00 0.00 53 1006.6
20260505074624 6 13 8.0 11.3 0.00 0.00 0.00 53 1006.5
20260505074121 6 60 6.4 11.3 0.00 0.00 0.00 54 1006.6
20260505073619 6 264 4.8 4.8 0.00 0.00 0.00 53 1006.6
20260505073117 6 326 3.2 9.7 0.00 0.00 0.00 53 1006.7
20260505072612 6 308 4.8 9.7 0.00 0.00 0.00 53 1006.4
20260505072109 6 283 3.2 6.4 0.00 0.00 0.00 52 1006.5
20260505071604 5 67 6.4 11.3 0.00 0.00 0.00 53 1006.4
20260505071103 5 20 6.4 14.5 0.00 0.00 0.00 54 1006.6
20260505070600 5 347 8.0 12.9 0.00 0.00 0.00 54 1006.6
20260505070055 5 29 6.4 8.0 0.00 0.00 0.00 54 1006.8
20260505065552 5 345 8.0 11.3 0.00 0.00 0.00 54 1006.5
20260505065049 5 341 11.3 14.5 0.00 0.00 0.00 54 1006.6
20260505064545 5 332 8.0 12.9 0.00 0.00 0.00 54 1006.5
20260505064044 5 326 6.4 11.3 0.00 0.00 0.00 54 1006.5
20260505063541 5 309 4.8 12.9 0.00 0.00 0.00 54 1006.7
20260505063036 5 293 4.8 11.3 0.00 0.00 0.00 53 1006.6
20260505062533 5 338 11.3 14.5 0.00 0.00 0.00 54 1006.5
20260505062031 5 312 9.7 11.3 0.00 0.00 0.00 54 1006.6
20260505061528 5 319 4.8 12.9 0.00 0.00 0.00 54 1006.5
20260505061026 5 289 6.4 11.3 0.00 0.00 0.00 53 1006.5
20260505060523 5 276 6.4 17.7 0.00 0.00 0.00 53 1006.4
20260505060020 5 299 6.4 11.3 0.00 0.00 0.00 53 1006.6
20260505055515 5 324 9.7 16.1 0.00 0.00 0.00 53 1006.4
20260505055012 5 273 14.5 14.5 0.00 0.00 0.00 54 1006.4
20260505054509 5 339 8.0 9.7 0.00 0.00 0.00 54 1006.5
20260505054008 5 335 6.4 11.3 0.00 0.00 0.00 54 1006.1
20260505053504 5 346 4.8 9.7 0.00 0.00 0.00 54 1006.4
20260505053000 5 272 6.4 9.7 0.00 0.00 0.00 54 1006.2
20260505052458 5 302 4.8 8.0 0.00 0.00 0.00 54 1006.4
20260505051955 5 282 3.2 6.4 0.00 0.00 0.00 54 1006.2
20260505051452 5 271 3.2 6.4 0.00 0.00 0.00 54 1005.9
20260505050950 5 310 4.8 8.0 0.00 0.00 0.00 54 1006.4
20260505050448 5 267 0.0 4.8 0.00 0.00 0.00 54 1006.1
20260505041416 5 81 0.0 4.8 0.00 0.00 0.00 54 1005.7
20260505040913 5 84 3.2 4.8 0.00 0.00 0.00 54 1005.7
20260505040410 6 104 1.6 4.8 0.00 0.00 0.00 54 1005.5
20260505035907 6 264 3.2 4.8 0.00 0.00 0.00 54 1005.7
20260505035403 6 277 0.0 3.2 0.00 0.00 0.00 53 1005.6
20260505034900 6 157 3.2 4.8 0.00 0.00 0.00 53 1005.6
20260505034357 6 142 0.0 3.2 0.00 0.00 0.00 53 1005.4
20260505033854 6 210 3.2 4.8 0.00 0.00 0.00 53 1005.4
20260505033350 6 191 3.2 4.8 0.00 0.00 0.00 53 1005.3
20260505032849 6 212 3.2 4.8 0.00 0.00 0.00 53 1005.5
20260505032345 6 237 0.0 4.8 0.00 0.00 0.00 53 1005.6
20260505031842 6 166 3.2 4.8 0.00 0.00 0.00 53 1005.6
20260505031339 6 124 0.0 4.8 0.00 0.00 0.00 53 1005.2
20260505030836 6 102 3.2 4.8 0.00 0.00 0.00 53 1005.4
20260505030332 6 115 1.6 4.8 0.00 0.00 0.00 53 1005.5
20260505025827 6 102 1.6 4.8 0.00 0.00 0.00 53 1005.2
20260505025325 6 119 1.6 3.2 0.00 0.00 0.00 53 1005.4
20260505024823 6 125 0.0 4.8 0.00 0.00 0.00 53 1005.4
20260505024321 7 44 0.0 3.2 0.00 0.00 0.00 53 1005.3
20260505023818 7 106 1.6 3.2 0.00 0.00 0.00 53 1005.4
20260505023315 7 143 0.0 4.8 0.00 0.00 0.00 53 1005.2
20260505022812 7 171 1.6 6.4 0.00 0.00 0.00 53 1005.5
20260505022309 7 148 3.2 4.8 0.00 0.00 0.00 53 1005.2
20260505021806 7 116 3.2 4.8 0.00 0.00 0.00 53 1005.5
20260505021303 7 140 3.2 4.8 0.00 0.00 0.00 53 1005.1
20260505020759 7 191 3.2 6.4 0.00 0.00 0.00 53 1005.1
20260505020254 7 246 0.0 4.8 0.00 0.00 0.00 53 1005.1
20260505015752 7 159 3.2 4.8 0.00 0.00 0.00 53 1005.0
20260505015249 7 151 3.2 4.8 0.00 0.00 0.00 53 1005.1
20260505014746 7 246 3.2 4.8 0.00 0.00 0.00 53 1005.0
20260505014243 7 262 6.4 8.0 0.00 0.00 0.00 52 1005.1
20260505013739 7 275 3.2 8.0 0.00 0.00 0.00 52 1004.8
20260505013236 7 266 6.4 8.0 0.00 0.00 0.00 53 1004.9
20260505012734 7 281 3.2 6.4 0.00 0.00 0.00 52 1004.9
20260505012231 7 277 4.8 8.0 0.00 0.00 0.00 52 1004.7
20260505011727 8 325 0.0 4.8 0.00 0.00 0.00 53 1004.8
20260505011225 8 248 3.2 4.8 0.00 0.00 0.00 53 1004.6
20260505010720 8 218 3.2 3.2 0.00 0.00 0.00 53 1004.7
20260505010217 8 203 0.0 3.2 0.00 0.00 0.00 53 1004.6
20260505005713 8 269 0.0 3.2 0.00 0.00 0.00 53 1004.6
20260505005210 8 135 0.0 4.8 0.00 0.00 0.00 53 1004.5
20260505004707 8 190 4.8 6.4 0.00 0.00 0.00 53 1004.3
20260505004204 8 200 1.6 6.4 0.00 0.00 0.00 53 1004.6
20260505003701 8 211 0.0 3.2 0.00 0.00 0.00 53 1004.2
20260505003159 8 190 1.6 4.8 0.00 0.00 0.00 53 1004.4
20260505002655 8 184 0.0 4.8 0.00 0.00 0.00 53 1004.4
20260505002153 8 168 4.8 6.4 0.00 0.00 0.00 53 1004.5
20260505001649 8 169 3.2 9.7 0.00 0.00 0.00 52 1004.4
20260505001147 8 155 0.0 8.0 0.00 0.00 0.00 52 1004.1
20260505000644 8 113 1.6 3.2 0.00 0.00 0.00 52 1004.0
20260505000142 8 287 0.0 4.8 0.00 0.00 0.00 52 1004.1
20260504235638 8 289 4.8 9.7 0.00 0.00 0.00 51 1004.1
20260504235134 8 264 4.8 12.9 0.00 0.00 0.00 51 1003.9
20260504234632 8 279 6.4 14.5 0.00 0.00 0.00 50 1003.8
20260504234129 8 275 8.0 11.3 0.00 0.00 0.00 50 1003.9
20260504233625 9 275 6.4 8.0 0.00 0.00 0.00 51 1003.8
20260504233121 9 278 6.4 8.0 0.00 0.00 0.00 53 1003.8
20260504232619 9 310 6.4 8.0 0.00 0.00 0.00 53 1003.8
20260504232116 9 346 4.8 8.0 0.00 0.00 0.00 52 1003.9
20260504231612 9 307 6.4 9.7 0.00 0.00 0.00 51 1003.7
20260504231108 9 306 4.8 8.0 0.00 0.00 0.00 52 1003.7
20260504230604 9 276 4.8 12.9 0.00 0.00 0.00 51 1003.7
20260504230104 9 287 6.4 11.3 0.00 0.00 0.00 51 1003.3
20260504225601 9 290 3.2 12.9 0.00 0.00 0.00 52 1003.7
20260504225057 10 264 3.2 8.0 0.00 0.00 0.00 52 1003.7
20260504224554 10 277 3.2 8.0 0.00 0.00 0.00 51 1003.7
20260504224051 10 273 3.2 12.9 0.00 0.00 0.00 52 1003.7
20260504223548 10 280 4.8 9.7 0.00 0.00 0.00 53 1003.7
20260504223043 10 298 4.8 8.0 0.00 0.00 0.00 53 1003.5
20260504222541 10 286 6.4 12.9 0.00 0.00 0.00 52 1003.4
20260504222038 10 280 8.0 19.3 0.00 0.00 0.00 51 1003.2
20260504221535 10 284 6.4 12.9 0.00 0.00 0.00 51 1003.4
20260504221032 10 300 8.0 20.9 0.00 0.00 0.00 51 1003.3
20260504220529 10 282 4.8 16.1 0.00 0.00 0.00 51 1003.2
20260504220026 10 298 6.4 20.9 0.00 0.00 0.00 51 1003.1
20260504215522 10 288 4.8 9.7 0.00 0.00 0.00 52 1003.2
20260504215020 11 314 4.8 12.9 0.00 0.00 0.00 52 1002.9